CW9688 Weather Reports


time (UTC)temp
C
wind
direction
speed
KPH
gust
KPH
rain 1hr
cm
rain 24hr
cm
rain mn
cm
humidity
%
barometer
mb
20240418181804 1 87 4.8 12.9 0.00 0.00 0.00 84 1027.9
20240418175805 1 97 3.2 12.9 0.00 0.00 0.00 83 1028.4
20240418174804 1 78 8.0 12.9 0.00 0.00 0.00 81 1028.3
20240418173804 1 88 4.8 11.3 0.00 0.00 0.00 81 1028.2
20240418173305 1 92 4.8 12.9 0.00 0.00 0.00 79 1028.2
20240418172304 1 114 3.2 11.3 0.00 0.00 0.00 80 1028.2
20240418171805 1 85 4.8 12.9 0.00 0.00 0.00 80 1028.3
20240418171304 1 86 4.8 9.7 0.00 0.00 0.00 80 1028.3
20240418170805 1 87 8.0 12.9 0.00 0.00 0.00 80 1028.3
20240418163804 1 110 1.6 8.0 0.00 0.00 0.00 82 1028.8
20240418162304 1 92 4.8 11.3 0.00 0.00 0.00 85 1028.7
20240418160804 1 94 1.6 12.9 0.00 0.00 0.00 86 1028.6
20240418160304 0 78 4.8 11.3 0.00 0.00 0.00 85 1028.6
20240418155806 0 94 4.8 9.7 0.00 0.00 0.00 85 1028.6
20240418154804 0 88 6.4 11.3 0.00 0.00 0.00 87 1028.5
20240418153804 0 61 4.8 9.7 0.00 0.00 0.00 89 1028.5
20240418152304 0 82 1.6 4.8 0.00 0.00 0.00 89 1028.6
20240418151304 0 86 3.2 4.8 0.00 0.00 0.00 89 1028.4
20240418150804 0 86 3.2 8.0 0.00 0.00 0.00 89 1028.4
20240418145804 0 59 1.6 9.7 0.00 0.00 0.00 89 1028.5
20240418143804 0 67 8.0 19.3 0.00 0.00 0.00 87 1028.5
20240418142304 1 93 3.2 11.3 0.00 0.00 0.00 88 1027.9
20240418141804 1 77 1.6 9.7 0.00 0.00 0.00 89 1028.0
20240418140804 0 34 0.0 3.2 0.00 0.00 0.00 88 1027.9
20240418134304 1 27 4.8 12.9 0.00 0.00 0.00 87 1028.1
20240418133804 0 57 3.2 4.8 0.00 0.00 0.00 86 1028.1
20240418131304 1 49 3.2 4.8 0.00 0.00 0.00 82 1027.6
20240418130804 1 85 1.6 4.8 0.00 0.00 0.00 81 1027.9
20240418124804 1 90 1.6 3.2 0.00 0.00 0.00 81 1027.5
20240418123304 1 94 4.8 8.0 0.00 0.00 0.00 82 1027.1
20240418122304 1 78 3.2 4.8 0.00 0.00 0.00 81 1027.1
20240418121804 1 81 0.0 1.6 0.00 0.00 0.00 81 1026.9
20240418121305 1 80 1.6 9.7 0.00 0.00 0.00 81 1026.8
20240418120804 1 87 3.2 8.0 0.00 0.00 0.00 81 1026.8
20240418120304 1 42 1.6 4.8 0.00 0.00 0.00 81 1026.7
20240418115805 0 43 1.6 4.8 0.00 0.00 0.00 81 1027.0
20240418114304 0 91 1.6 9.7 0.00 0.00 0.00 82 1026.7
20240418113805 0 87 4.8 12.9 0.00 0.00 0.00 83 1026.7
20240418112305 0 90 6.4 12.9 0.00 0.00 0.00 86 1026.8
20240418111305 0 69 6.4 9.7 0.00 0.00 0.00 86 1026.9
20240418110804 0 69 4.8 11.3 0.00 0.00 0.00 87 1026.6
20240418105805 0 66 4.8 9.7 0.00 0.00 0.00 87 1026.7
20240418105304 0 62 4.8 9.7 0.00 0.00 0.00 87 1026.7
20240418104305 0 70 3.2 9.7 0.00 0.00 0.00 88 1026.6
20240418103304 0 41 4.8 9.7 0.00 0.00 0.00 89 1026.6
20240418102304 0 58 4.8 16.1 0.00 0.00 0.00 88 1026.5
20240418101304 0 72 8.0 20.9 0.00 0.00 0.00 88 1026.7
20240418100804 1 92 11.3 22.5 0.00 0.00 0.00 87 1026.5
20240418095305 1 84 6.4 19.3 0.00 0.00 0.00 86 1026.3
20240418094804 1 49 4.8 12.9 0.00 0.00 0.00 85 1026.0
20240418094304 1 57 1.6 11.3 0.00 0.00 0.00 84 1025.8
20240418093805 1 51 4.8 12.9 0.00 0.00 0.00 84 1025.8
20240418093304 1 49 3.2 12.9 0.00 0.00 0.00 84 1025.8
20240418092304 1 78 8.0 19.3 0.00 0.00 0.00 82 1025.8
20240418091804 1 59 4.8 19.3 0.00 0.00 0.00 82 1026.0
20240418090804 1 63 4.8 12.9 0.00 0.00 0.00 82 1025.8
20240418090304 1 33 4.8 12.9 0.00 0.00 0.00 83 1025.9
20240418083804 1 61 6.4 14.5 0.00 0.00 0.00 86 1025.9
20240418082304 1 50 9.7 19.3 0.00 0.00 0.00 87 1026.1
20240418081804 1 48 8.0 16.1 0.00 0.00 0.00 87 1026.2
20240418081304 1 65 6.4 19.3 0.00 0.00 0.00 87 1025.9
20240418080805 2 53 9.7 19.3 0.00 0.00 0.00 86 1025.9
20240418080305 2 81 8.0 12.9 0.00 0.00 0.00 86 1025.8
20240418075304 2 66 8.0 16.1 0.00 0.00 0.00 85 1026.3
20240418074804 2 62 3.2 11.3 0.00 0.00 0.00 84 1026.2
20240418073304 2 13 4.8 19.3 0.00 0.00 0.00 83 1026.3
20240418072804 2 350 1.6 8.0 0.00 0.00 0.00 83 1026.3
20240418071319 2 57 4.8 11.3 0.00 0.00 0.00 82 1026.2
20240418070804 3 343 6.4 12.9 0.00 0.00 0.00 82 1026.1
20240418070305 3 59 1.6 8.0 0.00 0.00 0.00 81 1026.0
20240418065304 3 71 1.6 4.8 0.00 0.00 0.00 79 1026.2
20240418062805 3 84 3.2 9.7 0.00 0.00 0.00 77 1025.8
20240418061804 3 74 3.2 12.9 0.00 0.00 0.00 77 1025.3
20240418061304 3 54 4.8 19.3 0.00 0.00 0.00 77 1025.3
20240418060817 3 38 3.2 8.0 0.00 0.00 0.00 76 1025.1
20240418060304 3 68 4.8 16.1 0.00 0.00 0.00 76 1025.2
20240418055803 3 45 6.4 12.9 0.00 0.00 0.00 75 1025.2
20240418055304 3 72 1.6 19.3 0.00 0.00 0.00 75 1025.2
20240418054304 3 54 8.0 12.9 0.00 0.00 0.00 75 1025.2
20240418053304 3 56 8.0 19.3 0.00 0.00 0.00 75 1025.0
20240418051804 4 47 3.2 9.7 0.00 0.00 0.00 74 1024.8
20240418050304 4 44 9.7 22.5 0.00 0.00 0.00 75 1024.4
20240418045804 4 68 12.9 24.1 0.00 0.00 0.00 76 1024.4
20240418044304 5 90 11.3 19.3 0.00 0.00 0.00 76 1024.5
20240418043304 5 56 8.0 24.1 0.00 0.00 0.00 76 1024.2
20240418042804 5 74 11.3 27.4 0.00 0.00 0.00 76 1023.4
20240418041304 5 68 11.3 24.1 0.00 0.00 0.00 76 1023.7
20240418040804 5 84 8.0 19.3 0.00 0.00 0.00 76 1023.7
20240418040304 5 63 11.3 20.9 0.00 0.00 0.00 75 1023.3
20240418035804 5 89 11.3 29.0 0.00 0.00 0.00 75 1023.1
20240418035304 6 83 11.3 29.0 0.00 0.00 0.00 75 1023.1
20240418034804 6 59 9.7 24.1 0.00 0.00 0.00 75 1022.7
20240418032804 7 62 11.3 22.5 0.00 0.00 0.00 72 1022.0
20240418032303 7 62 9.7 19.3 0.00 0.00 0.00 71 1022.1
20240418031805 7 62 6.4 20.9 0.00 0.00 0.00 70 1021.8
20240418030805 7 49 8.0 16.1 0.00 0.00 0.00 69 1021.6
20240418030304 8 28 4.8 12.9 0.00 0.00 0.00 68 1020.9
20240418025804 8 52 6.4 12.9 0.00 0.00 0.00 68 1020.9
20240418024804 8 68 4.8 19.3 0.00 0.00 0.00 66 1020.3
20240418024304 8 44 4.8 14.5 0.00 0.00 0.00 65 1020.3
20240418023804 9 8 4.8 12.9 0.00 0.00 0.00 64 1020.3
20240418023304 9 61 3.2 9.7 0.00 0.00 0.00 64 1020.2
20240418022804 9 78 1.6 20.9 0.00 0.00 0.00 63 1019.4
20240418022303 9 34 12.9 24.1 0.00 0.00 0.00 62 1019.4
20240418021304 10 33 9.7 19.3 0.00 0.00 0.00 61 1019.3
20240418015804 10 63 8.0 19.3 0.00 0.00 0.00 58 1018.8
20240418014305 11 20 6.4 19.3 0.00 0.00 0.00 56 1018.0
20240418013803 11 39 9.7 22.5 0.00 0.00 0.00 55 1018.0
20240418011804 12 46 17.7 32.2 0.00 0.00 0.00 52 1016.3
20240418010804 13 47 14.5 32.2 0.00 0.00 0.00 49 1016.5
20240418005304 15 48 17.7 29.0 0.00 0.00 0.00 44 1015.4
20240418004804 16 46 24.1 35.4 0.00 0.00 0.00 43 1015.4
20240418004304 16 56 17.7 29.0 0.00 0.00 0.00 43 1015.1
20240418002304 17 51 12.9 25.7 0.00 0.00 0.00 42 1014.5
20240417235304 18 42 11.3 19.3 0.00 0.00 0.00 38 1013.8
20240417234804 18 43 14.5 19.3 0.00 0.00 0.00 37 1013.8
20240417233804 20 36 11.3 19.3 0.00 0.00 0.00 33 1012.9
20240417233304 21 6 11.3 20.9 0.00 0.00 0.00 30 1012.9
20240417230804 22 54 4.8 11.3 0.00 0.00 0.00 22 1012.7
20240417225804 22 93 4.8 11.3 0.00 0.00 0.00 22 1012.9
20240417224304 21 92 8.0 11.3 0.00 0.00 0.00 23 1012.9
20240417223804 21 47 4.8 9.7 0.00 0.00 0.00 22 1013.0
20240417222804 22 72 8.0 14.5 0.00 0.00 0.00 22 1012.7
20240417221804 21 64 8.0 19.3 0.00 0.00 0.00 22 1012.7
20240417220804 21 99 11.3 22.5 0.00 0.00 0.00 22 1012.7
20240417220305 21 78 11.3 20.9 0.00 0.00 0.00 21 1012.7
20240417214803 23 67 8.0 20.9 0.00 0.00 0.00 21 1012.8
20240417214304 24 58 9.7 16.1 0.00 0.00 0.00 21 1012.8
20240417213804 23 91 9.7 19.3 0.00 0.00 0.00 20 1012.9
20240417212304 24 9 9.7 12.9 0.00 0.00 0.00 22 1013.1
20240417211305 23 55 11.3 19.3 0.00 0.00 0.00 22 1013.1
20240417210304 23 88 4.8 9.7 0.00 0.00 0.00 21 1013.2
20240417204304 22 103 4.8 12.9 0.00 0.00 0.00 21 1013.6
20240417203304 22 84 8.0 12.9 0.00 0.00 0.00 21 1013.9
20240417202304 21 128 3.2 9.7 0.00 0.00 0.00 22 1014.0
20240417201805 22 95 3.2 11.3 0.00 0.00 0.00 20 1014.0
20240417200804 22 349 1.6 8.0 0.00 0.00 0.00 21 1014.2
20240417200304 23 339 4.8 11.3 0.00 0.00 0.00 21 1014.2
20240417195304 22 350 3.2 8.0 0.00 0.00 0.00 22 1014.0
20240417193804 22 282 4.8 14.5 0.00 0.00 0.00 22 1014.2
20240417193304 21 232 3.2 9.7 0.00 0.00 0.00 20 1014.2
20240417185803 21 117 8.0 14.5 0.00 0.00 0.00 21 1014.7
20240417184804 22 55 4.8 8.0 0.00 0.00 0.00 23 1014.9
20240417184304 21 90 4.8 16.1 0.00 0.00 0.00 21 1015.0
20240417183804 21 31 4.8 11.3 0.00 0.00 0.00 22 1015.0
20240417183304 21 144 4.8 8.0 0.00 0.00 0.00 22 1015.2
20240417182304 21 142 1.6 4.8 0.00 0.00 0.00 22 1015.2